HAZ2817 ZSHC-ZBSJ

Flight info

Callsign HAZ2817
Flight time 3h 11m
Altitude 36100
Route NIVIK8D NIVIK W135 LUPVI R343 HFE B208 OBMEP/K0859S1130 W56 ORODO/K0852S1160 W62 KARVU/K0852S1130 W62 IGDID
Aircraft B738/M-SDE2E3FGHIRWXY/LB1

Departure

Time 2026-05-04 17:21
Airport Hangzhou Xiaoshan International Airport (ZSHC)

Arrival

Time 2026-05-04 20:32
Airport Shijiazhuang Zhengding International Airport (ZBSJ)
Time Latitude Longitude Altitude Speed Heading
2026-05-04 16:49 30.23396 120.43084 28 ft 0 kts 62°
2026-05-04 17:08 30.23396 120.43083 28 ft 0 kts 62°
2026-05-04 17:09 30.23389 120.43070 28 ft 2 kts 62°
2026-05-04 17:09 30.23383 120.43057 28 ft 2 kts 62°
2026-05-04 17:09 30.23379 120.43048 28 ft 2 kts 62°
2026-05-04 17:10 30.23381 120.43027 28 ft 0 kts 151°
2026-05-04 17:10 30.23388 120.43024 28 ft 0 kts 152°
2026-05-04 17:12 30.23382 120.43027 28 ft 2 kts 151°
2026-05-04 17:13 30.23215 120.43129 28 ft 14 kts 152°
2026-05-04 17:14 30.23074 120.43291 28 ft 9 kts 65°
2026-05-04 17:14 30.23104 120.43359 28 ft 8 kts 62°
2026-05-04 17:14 30.23154 120.43471 28 ft 7 kts 62°
2026-05-04 17:15 30.23188 120.43548 28 ft 13 kts 63°
2026-05-04 17:15 30.23304 120.43810 28 ft 20 kts 63°
2026-05-04 17:16 30.23426 120.44085 28 ft 18 kts 63°
2026-05-04 17:16 30.23588 120.44458 28 ft 16 kts 60°
2026-05-04 17:17 30.23642 120.44570 28 ft 15 kts 63°
2026-05-04 17:17 30.23780 120.44884 28 ft 13 kts 62°
2026-05-04 17:18 30.23816 120.44978 28 ft 11 kts 82°
2026-05-04 17:18 30.23768 120.45058 28 ft 0 kts 151°
2026-05-04 17:19 30.23688 120.45077 28 ft 8 kts 186°
2026-05-04 17:20 30.23644 120.45016 28 ft 4 kts 239°
2026-05-04 17:20 30.23587 120.44882 28 ft 35 kts 243°
2026-05-04 17:20 30.23376 120.44405 28 ft 103 kts 242°
2026-05-04 17:21 30.22365 120.42269 166 ft 192 kts 237°
2026-05-04 17:21 30.20874 120.39996 1844 ft 178 kts 228°
2026-05-04 17:22 30.20025 120.38869 2298 ft 193 kts 226°
2026-05-04 17:22 30.19089 120.37688 2822 ft 205 kts 226°
2026-05-04 17:23 30.15906 120.33692 4317 ft 243 kts 227°
2026-05-04 17:23 30.14759 120.32245 4869 ft 248 kts 227°
2026-05-04 17:23 30.12385 120.29252 5000 ft 248 kts 227°
2026-05-04 17:24 30.11264 120.27749 4999 ft 249 kts 233°
2026-05-04 17:24 30.11002 120.22298 4999 ft 250 kts 293°
2026-05-04 17:25 30.11918 120.20602 4995 ft 250 kts 313°
2026-05-04 17:25 30.14915 120.18568 4992 ft 250 kts 333°
2026-05-04 17:26 30.18100 120.16601 6143 ft 260 kts 332°
2026-05-04 17:26 30.23021 120.13465 7822 ft 275 kts 332°
2026-05-04 17:27 30.26405 120.11330 7870 ft 271 kts 332°
2026-05-04 17:27 30.29732 120.09232 7871 ft 273 kts 332°
2026-05-04 17:28 30.33057 120.07132 7867 ft 272 kts 332°
2026-05-04 17:29 30.38074 120.03960 7867 ft 272 kts 332°
2026-05-04 17:29 30.43065 120.00801 7854 ft 270 kts 332°
2026-05-04 17:30 30.48110 119.97611 9541 ft 276 kts 332°
2026-05-04 17:31 30.51548 119.95434 10667 ft 294 kts 331°
2026-05-04 17:31 30.57353 119.91756 11859 ft 338 kts 331°
2026-05-04 17:32 30.61655 119.89112 12731 ft 362 kts 335°
2026-05-04 17:33 30.69120 119.88792 14735 ft 382 kts 12°
2026-05-04 17:33 30.71711 119.89551 15442 ft 386 kts 11°
2026-05-04 17:34 30.79426 119.88364 17444 ft 384 kts 326°
2026-05-04 17:34 30.81633 119.86580 18137 ft 385 kts 321°
2026-05-04 17:35 30.88115 119.80889 20100 ft 393 kts 320°
2026-05-04 17:35 30.92538 119.77042 21325 ft 399 kts 320°
2026-05-04 17:35 30.94777 119.75105 21893 ft 403 kts 320°
2026-05-04 17:36 30.97020 119.73167 22498 ft 405 kts 320°
2026-05-04 17:36 30.99281 119.71215 23100 ft 406 kts 320°
2026-05-04 17:36 31.01543 119.69263 23672 ft 408 kts 320°
2026-05-04 17:36 31.03837 119.67283 24153 ft 412 kts 319°
2026-05-04 17:37 31.06162 119.65274 24691 ft 415 kts 319°
2026-05-04 17:37 31.08490 119.63263 25204 ft 418 kts 319°
2026-05-04 17:37 31.10829 119.61240 25695 ft 421 kts 319°
2026-05-04 17:37 31.13221 119.59170 26132 ft 425 kts 319°
2026-05-04 17:38 31.15580 119.57127 26622 ft 427 kts 319°
2026-05-04 17:38 31.18007 119.55024 27040 ft 432 kts 318°
2026-05-04 17:38 31.20402 119.52947 27520 ft 433 kts 318°
2026-05-04 17:38 31.22829 119.50841 27987 ft 436 kts 318°
2026-05-04 17:39 31.27733 119.46582 28824 ft 441 kts 318°
2026-05-04 17:39 31.30240 119.44402 29212 ft 444 kts 318°
2026-05-04 17:39 31.32710 119.42255 29723 ft 443 kts 318°
2026-05-04 17:40 31.35161 119.40128 30334 ft 439 kts 317°
2026-05-04 17:40 31.37608 119.38003 30844 ft 436 kts 317°
2026-05-04 17:40 31.40027 119.35898 31267 ft 435 kts 317°
2026-05-04 17:40 31.42418 119.33813 31677 ft 434 kts 316°
2026-05-04 17:41 31.44817 119.31718 32091 ft 433 kts 316°
2026-05-04 17:41 31.47252 119.29591 32534 ft 432 kts 316°
2026-05-04 17:41 31.49634 119.27510 32997 ft 429 kts 316°
2026-05-04 17:41 31.52045 119.25403 33417 ft 427 kts 316°
2026-05-04 17:42 31.54421 119.23326 33804 ft 425 kts 316°
2026-05-04 17:42 31.56806 119.21232 34103 ft 425 kts 315°
2026-05-04 17:42 31.59068 119.19010 34473 ft 418 kts 310°
2026-05-04 17:42 31.61040 119.16599 34857 ft 410 kts 304°
2026-05-04 17:43 31.62748 119.13950 35222 ft 403 kts 298°
2026-05-04 17:43 31.64166 119.11087 35469 ft 399 kts 291°
2026-05-04 17:43 31.65257 119.08076 35734 ft 396 kts 285°
2026-05-04 17:43 31.66009 119.04968 36015 ft 393 kts 279°
2026-05-04 17:44 31.66415 118.98589 36114 ft 390 kts 268°
2026-05-04 17:44 31.66322 118.92213 36107 ft 389 kts 269°
2026-05-04 17:45 31.66485 118.85824 36110 ft 390 kts 272°
2026-05-04 17:45 31.66862 118.79494 36110 ft 391 kts 273°
2026-05-04 17:46 31.67316 118.73135 36107 ft 392 kts 273°
2026-05-04 17:46 31.67786 118.66763 36112 ft 392 kts 273°
2026-05-04 17:47 31.68252 118.60380 36109 ft 392 kts 273°
2026-05-04 17:47 31.68714 118.54005 36108 ft 391 kts 273°
2026-05-04 17:48 31.69161 118.47784 36102 ft 392 kts 273°
2026-05-04 17:48 31.69618 118.41392 36104 ft 392 kts 273°
2026-05-04 17:49 31.70071 118.35009 36100 ft 393 kts 273°
2026-05-04 17:49 31.70523 118.28613 36101 ft 393 kts 273°
2026-05-04 17:50 31.70954 118.22463 36096 ft 391 kts 273°
2026-05-04 17:50 31.71399 118.16071 36099 ft 394 kts 273°
2026-05-04 17:51 31.71838 118.09727 36096 ft 392 kts 273°
2026-05-04 17:51 31.72295 118.03416 36095 ft 393 kts 273°
2026-05-04 17:52 31.72768 117.97020 36095 ft 395 kts 274°
2026-05-04 17:52 31.73238 117.90613 36092 ft 394 kts 273°
2026-05-04 17:53 31.73705 117.84193 36095 ft 395 kts 274°
2026-05-04 17:53 31.74168 117.77745 36092 ft 395 kts 274°
2026-05-04 17:54 31.74625 117.71338 36092 ft 395 kts 273°
2026-05-04 17:54 31.75082 117.64863 36091 ft 396 kts 274°
2026-05-04 17:55 31.75534 117.58430 36089 ft 396 kts 273°
2026-05-04 17:55 31.75983 117.51990 36093 ft 397 kts 274°
2026-05-04 17:56 31.76429 117.45531 36093 ft 397 kts 273°
2026-05-04 17:56 31.76872 117.39061 36093 ft 399 kts 273°
2026-05-04 17:57 31.77787 117.32633 36090 ft 402 kts 284°
2026-05-04 17:57 31.80198 117.26739 36093 ft 409 kts 298°
2026-05-04 17:58 31.83661 117.21352 36097 ft 415 kts 304°
2026-05-04 17:58 31.87428 117.16198 36095 ft 414 kts 305°
2026-05-04 17:59 31.91229 117.11049 36091 ft 418 kts 305°
2026-05-04 18:00 31.96899 117.03267 36090 ft 416 kts 305°
2026-05-04 18:00 32.00631 116.98106 36086 ft 416 kts 305°
2026-05-04 18:01 32.04397 116.92896 36089 ft 415 kts 306°
2026-05-04 18:01 32.08152 116.87688 36079 ft 416 kts 306°
2026-05-04 18:02 32.13721 116.79948 36078 ft 417 kts 306°
2026-05-04 18:02 32.17484 116.74708 36067 ft 417 kts 306°
2026-05-04 18:03 32.21210 116.69474 36080 ft 418 kts 305°
2026-05-04 18:03 32.24925 116.64121 36075 ft 418 kts 304°
2026-05-04 18:04 32.28585 116.58823 36083 ft 419 kts 304°
2026-05-04 18:05 32.34087 116.50854 36074 ft 418 kts 305°
2026-05-04 18:05 32.37784 116.45501 36072 ft 420 kts 305°
2026-05-04 18:06 32.43339 116.37458 36071 ft 420 kts 305°
2026-05-04 18:06 32.47041 116.32089 36072 ft 420 kts 305°
2026-05-04 18:07 32.50721 116.26744 36071 ft 420 kts 305°
2026-05-04 18:07 32.54415 116.21365 36056 ft 422 kts 305°
2026-05-04 18:08 32.58117 116.15996 36054 ft 421 kts 306°
2026-05-04 18:08 32.61900 116.10663 36057 ft 420 kts 307°
2026-05-04 18:09 32.69459 116.00059 36056 ft 421 kts 307°
2026-05-04 18:10 32.73223 115.94755 36052 ft 422 kts 307°
2026-05-04 18:10 32.77005 115.89404 36057 ft 424 kts 307°
2026-05-04 18:11 32.80807 115.84017 36055 ft 422 kts 307°
2026-05-04 18:11 32.84568 115.78681 36055 ft 422 kts 307°
2026-05-04 18:12 32.88334 115.73332 36056 ft 422 kts 307°
2026-05-04 18:12 32.92169 115.68005 36047 ft 424 kts 308°
2026-05-04 18:13 32.96056 115.62721 36050 ft 425 kts 309°
2026-05-04 18:14 33.01922 115.54733 36042 ft 425 kts 308°
2026-05-04 18:14 33.05828 115.49392 36045 ft 425 kts 309°
2026-05-04 18:15 33.13589 115.38730 36045 ft 425 kts 309°
2026-05-04 18:16 33.16790 115.34322 36048 ft 423 kts 308°
2026-05-04 18:16 33.19706 115.30298 36049 ft 425 kts 308°
2026-05-04 18:17 33.25493 115.22306 36037 ft 425 kts 308°
2026-05-04 18:18 33.31312 115.14254 36026 ft 425 kts 309°
2026-05-04 18:18 33.35154 115.08926 36024 ft 424 kts 309°
2026-05-04 18:19 33.40963 115.00856 36018 ft 426 kts 309°
2026-05-04 18:19 33.44831 114.95469 36021 ft 425 kts 309°
2026-05-04 18:20 33.48687 114.90092 36025 ft 424 kts 309°
2026-05-04 18:20 33.52551 114.84696 36030 ft 425 kts 309°
2026-05-04 18:21 33.56417 114.79290 36016 ft 425 kts 309°
2026-05-04 18:21 33.60267 114.73910 36015 ft 425 kts 309°
2026-05-04 18:22 33.64177 114.68584 36014 ft 425 kts 311°
2026-05-04 18:22 33.68433 114.63622 36020 ft 425 kts 317°
2026-05-04 18:23 33.73037 114.59092 36020 ft 427 kts 320°
2026-05-04 18:23 33.77810 114.54800 36013 ft 428 kts 327°
2026-05-04 18:24 33.83293 114.51984 36021 ft 435 kts 341°
2026-05-04 18:24 33.89343 114.51016 36017 ft 441 kts 356°
2026-05-04 18:25 33.95535 114.51395 36017 ft 443 kts
2026-05-04 18:25 34.01699 114.52062 36018 ft 442 kts
2026-05-04 18:26 34.07848 114.52736 36008 ft 442 kts
2026-05-04 18:26 34.14020 114.53374 36020 ft 442 kts
2026-05-04 18:27 34.20171 114.53984 36013 ft 441 kts
2026-05-04 18:27 34.26303 114.54575 36005 ft 441 kts
2026-05-04 18:28 34.32456 114.55160 36006 ft 440 kts
2026-05-04 18:28 34.38549 114.55743 36004 ft 441 kts
2026-05-04 18:29 34.44737 114.56334 36000 ft 440 kts
2026-05-04 18:29 34.50810 114.56911 36007 ft 439 kts
2026-05-04 18:30 34.60008 114.57783 36003 ft 439 kts
2026-05-04 18:31 34.66109 114.58361 36011 ft 439 kts
2026-05-04 18:31 34.72213 114.58943 35999 ft 439 kts
2026-05-04 18:32 34.78355 114.59529 35996 ft 438 kts
2026-05-04 18:32 34.84490 114.60114 36006 ft 439 kts
2026-05-04 18:33 34.90596 114.60697 35995 ft 436 kts
2026-05-04 18:33 34.96665 114.61277 35994 ft 436 kts
2026-05-04 18:34 35.02757 114.61860 35990 ft 436 kts
2026-05-04 18:34 35.08831 114.62444 35975 ft 436 kts
2026-05-04 18:35 35.14908 114.63030 35979 ft 437 kts
2026-05-04 18:35 35.20984 114.63614 35979 ft 435 kts
2026-05-04 18:36 35.27079 114.64202 35978 ft 435 kts
2026-05-04 18:36 35.33112 114.64784 35986 ft 433 kts
2026-05-04 18:37 35.39162 114.65369 35981 ft 433 kts
2026-05-04 18:37 35.45204 114.65954 35983 ft 433 kts
2026-05-04 18:38 35.51225 114.66537 35968 ft 433 kts
2026-05-04 18:38 35.57274 114.67127 35984 ft 432 kts
2026-05-04 18:39 35.63287 114.67712 35977 ft 432 kts
2026-05-04 18:39 35.69285 114.68296 35981 ft 432 kts
2026-05-04 18:40 35.75256 114.68880 35973 ft 431 kts
2026-05-04 18:40 35.81268 114.69467 35972 ft 431 kts
2026-05-04 18:41 35.87280 114.70055 35970 ft 430 kts
2026-05-04 18:41 35.93288 114.70644 35972 ft 430 kts
2026-05-04 18:42 35.99265 114.71229 35957 ft 429 kts
2026-05-04 18:42 36.05261 114.71819 35953 ft 430 kts
2026-05-04 18:43 36.11215 114.72405 35942 ft 429 kts
2026-05-04 18:43 36.17184 114.72990 35940 ft 429 kts
2026-05-04 18:44 36.23196 114.73579 35940 ft 428 kts
2026-05-04 18:44 36.29149 114.74161 35943 ft 428 kts
2026-05-04 18:45 36.35087 114.74753 35942 ft 428 kts
2026-05-04 18:45 36.41027 114.75002 35941 ft 425 kts 357°
2026-05-04 18:46 36.46978 114.74741 35940 ft 425 kts 355°
2026-05-04 18:46 36.52870 114.74394 35942 ft 425 kts 355°
2026-05-04 18:47 36.58808 114.74068 35937 ft 425 kts 356°
2026-05-04 18:47 36.64731 114.73772 35940 ft 426 kts 356°
2026-05-04 18:48 36.70682 114.73491 35938 ft 425 kts 356°
2026-05-04 18:48 36.76642 114.73703 35935 ft 427 kts
2026-05-04 18:49 36.82357 114.75775 35933 ft 430 kts 19°
2026-05-04 18:49 36.87843 114.78812 35936 ft 432 kts 22°
2026-05-04 18:50 36.93298 114.82059 35927 ft 432 kts 22°
2026-05-04 18:50 36.98745 114.85307 35920 ft 432 kts 22°
2026-05-04 18:51 37.04174 114.88519 35908 ft 431 kts 22°
2026-05-04 18:51 37.09638 114.91731 35905 ft 431 kts 22°
2026-05-04 18:52 37.15040 114.94902 35902 ft 431 kts 22°
2026-05-04 18:52 37.20493 114.98103 35903 ft 431 kts 22°
2026-05-04 18:53 37.25923 115.01293 35905 ft 430 kts 22°
2026-05-04 18:53 37.31345 115.04482 35901 ft 430 kts 22°
2026-05-04 18:54 37.36788 115.07690 35905 ft 430 kts 22°
2026-05-04 18:54 37.42233 115.10905 35899 ft 430 kts 22°
2026-05-04 18:54 37.44943 115.12507 35703 ft 431 kts 22°
2026-05-04 18:55 37.47670 115.14120 35494 ft 429 kts 22°
2026-05-04 18:55 37.53071 115.17318 35083 ft 428 kts 22°
2026-05-04 18:55 37.55772 115.18918 34872 ft 429 kts 23°
2026-05-04 18:56 37.58393 115.20472 34661 ft 428 kts 23°
2026-05-04 18:56 37.61091 115.22072 34445 ft 427 kts 23°
2026-05-04 18:56 37.63766 115.23661 34216 ft 426 kts 23°
2026-05-04 18:56 37.66471 115.25269 33942 ft 427 kts 23°
2026-05-04 18:57 37.69134 115.26854 33371 ft 426 kts 23°
2026-05-04 18:57 37.71836 115.28433 32502 ft 429 kts 22°
2026-05-04 18:57 37.74622 115.29873 31445 ft 435 kts 17°
2026-05-04 18:57 37.77541 115.30856 30452 ft 437 kts
2026-05-04 18:58 37.80550 115.31337 29616 ft 437 kts
2026-05-04 18:58 37.83557 115.31441 28730 ft 438 kts 359°
2026-05-04 18:58 37.86628 115.31297 27696 ft 441 kts 355°
2026-05-04 18:58 37.89671 115.30749 27051 ft 436 kts 348°
2026-05-04 18:59 37.92593 115.29878 26417 ft 431 kts 345°
2026-05-04 18:59 37.95444 115.28848 25708 ft 428 kts 343°
2026-05-04 18:59 37.98300 115.27734 25081 ft 423 kts 342°
2026-05-04 18:59 38.01088 115.26618 24511 ft 417 kts 342°
2026-05-04 19:00 38.03819 115.25523 23958 ft 412 kts 342°
2026-05-04 19:00 38.06530 115.24447 23418 ft 407 kts 342°
2026-05-04 19:00 38.09280 115.23367 22875 ft 411 kts 342°
2026-05-04 19:00 38.12010 115.22305 22319 ft 412 kts 342°
2026-05-04 19:01 38.14738 115.21252 21757 ft 407 kts 342°
2026-05-04 19:01 38.17426 115.20222 21220 ft 402 kts 342°
2026-05-04 19:01 38.20083 115.19205 20678 ft 396 kts 342°
2026-05-04 19:01 38.22721 115.18198 20132 ft 392 kts 342°
2026-05-04 19:02 38.25275 115.17223 19611 ft 391 kts 342°
2026-05-04 19:02 38.27639 115.16320 19122 ft 394 kts 342°
2026-05-04 19:02 38.28524 115.15982 18941 ft 394 kts 342°
2026-05-04 19:02 38.30133 115.15368 18604 ft 391 kts 342°
2026-05-04 19:03 38.31785 115.14736 18412 ft 386 kts 342°
2026-05-04 19:03 38.34376 115.13747 18098 ft 389 kts 342°
2026-05-04 19:03 38.36447 115.12954 17733 ft 389 kts 342°
2026-05-04 19:03 38.38094 115.12324 17397 ft 386 kts 342°
2026-05-04 19:04 38.40566 115.11376 16869 ft 381 kts 342°
2026-05-04 19:04 38.43093 115.10407 16326 ft 377 kts 342°
2026-05-04 19:04 38.45482 115.09491 15815 ft 381 kts 342°
2026-05-04 19:04 38.48045 115.08508 15242 ft 384 kts 342°
2026-05-04 19:05 38.50577 115.07535 14666 ft 380 kts 342°
2026-05-04 19:05 38.53122 115.06556 14100 ft 376 kts 343°
2026-05-04 19:05 38.55621 115.05594 13531 ft 374 kts 343°
2026-05-04 19:05 38.58136 115.04626 12954 ft 378 kts 342°
2026-05-04 19:06 38.60641 115.03661 12386 ft 376 kts 342°
2026-05-04 19:06 38.63131 115.02702 11816 ft 372 kts 342°
2026-05-04 19:06 38.65596 115.01751 11257 ft 368 kts 342°
2026-05-04 19:06 38.68044 115.00790 10748 ft 361 kts 340°
2026-05-04 19:07 38.70300 114.99549 10475 ft 348 kts 329°
2026-05-04 19:07 38.72094 114.97601 10348 ft 328 kts 305°
2026-05-04 19:07 38.73045 114.95066 10238 ft 311 kts 283°
2026-05-04 19:07 38.73248 114.92401 10103 ft 296 kts 266°
2026-05-04 19:08 38.72974 114.89825 9988 ft 283 kts 257°
2026-05-04 19:08 38.72371 114.87474 9806 ft 274 kts 247°
2026-05-04 19:08 38.71579 114.85303 9446 ft 272 kts 244°
2026-05-04 19:08 38.70731 114.83136 9087 ft 270 kts 244°
2026-05-04 19:09 38.69905 114.80972 8741 ft 268 kts 245°
2026-05-04 19:09 38.69114 114.78823 8398 ft 265 kts 245°
2026-05-04 19:09 38.68349 114.76698 8054 ft 263 kts 246°
2026-05-04 19:09 38.67587 114.74566 7703 ft 261 kts 246°
2026-05-04 19:10 38.66839 114.72472 7375 ft 258 kts 246°
2026-05-04 19:10 38.66095 114.70392 7049 ft 255 kts 245°
2026-05-04 19:10 38.65363 114.68349 6728 ft 252 kts 246°
2026-05-04 19:10 38.64647 114.66355 6418 ft 249 kts 245°
2026-05-04 19:11 38.63921 114.64337 6097 ft 246 kts 246°
2026-05-04 19:11 38.63205 114.62345 5776 ft 244 kts 246°
2026-05-04 19:11 38.62502 114.60390 5475 ft 242 kts 246°
2026-05-04 19:11 38.61786 114.58399 5165 ft 249 kts 246°
2026-05-04 19:12 38.61065 114.56400 4843 ft 249 kts 246°
2026-05-04 19:12 38.58898 114.53102 4215 ft 248 kts 206°
2026-05-04 19:12 38.57220 114.52662 3914 ft 252 kts 183°
2026-05-04 19:13 38.55445 114.52924 3591 ft 260 kts 173°
2026-05-04 19:13 38.53642 114.53391 3253 ft 259 kts 171°
2026-05-04 19:13 38.51897 114.53863 3072 ft 251 kts 171°
2026-05-04 19:13 38.50212 114.54311 2997 ft 240 kts 171°
2026-05-04 19:14 38.48633 114.54721 2932 ft 229 kts 172°
2026-05-04 19:14 38.47059 114.55120 2870 ft 228 kts 172°
2026-05-04 19:14 38.45519 114.55577 2802 ft 224 kts 165°
2026-05-04 19:14 38.44126 114.56452 2803 ft 224 kts 150°
2026-05-04 19:15 38.42842 114.57586 2807 ft 226 kts 147°
2026-05-04 19:15 38.41552 114.58733 2810 ft 225 kts 149°
2026-05-04 19:15 38.40221 114.59815 2807 ft 224 kts 152°
2026-05-04 19:15 38.38901 114.60867 2808 ft 224 kts 151°
2026-05-04 19:16 38.37602 114.61939 2805 ft 223 kts 150°
2026-05-04 19:16 38.36272 114.63007 2810 ft 223 kts 153°
2026-05-04 19:16 38.34926 114.64003 2806 ft 223 kts 153°
2026-05-04 19:16 38.33604 114.65035 2806 ft 222 kts 150°
2026-05-04 19:17 38.32320 114.66101 2807 ft 221 kts 150°
2026-05-04 19:17 38.31036 114.67193 2802 ft 221 kts 149°
2026-05-04 19:17 38.29747 114.68292 2801 ft 220 kts 150°
2026-05-04 19:17 38.28466 114.69384 2798 ft 220 kts 149°
2026-05-04 19:18 38.27202 114.70464 2785 ft 220 kts 150°
2026-05-04 19:18 38.25908 114.71529 2738 ft 221 kts 151°
2026-05-04 19:18 38.24598 114.72572 2669 ft 222 kts 152°
2026-05-04 19:18 38.23311 114.73645 2612 ft 222 kts 142°
2026-05-04 19:19 38.22420 114.75274 2509 ft 229 kts 107°
2026-05-04 19:19 38.22349 114.77277 2537 ft 229 kts 78°
2026-05-04 19:19 38.22877 114.79194 2606 ft 230 kts 62°
2026-05-04 19:19 38.23696 114.80946 2637 ft 229 kts 55°
2026-05-04 19:20 38.24581 114.82629 2661 ft 231 kts 55°
2026-05-04 19:20 38.25493 114.84321 2679 ft 230 kts 51°
2026-05-04 19:20 38.26627 114.85735 2601 ft 228 kts 27°
2026-05-04 19:20 38.28125 114.86267 2567 ft 219 kts 355°
2026-05-04 19:21 38.29617 114.85965 2643 ft 216 kts 339°
2026-05-04 19:21 38.30976 114.85191 2652 ft 215 kts 325°
2026-05-04 19:21 38.32221 114.84134 2601 ft 212 kts 322°
2026-05-04 19:21 38.33438 114.83066 2603 ft 211 kts 323°
2026-05-04 19:22 38.34675 114.82033 2672 ft 212 kts 324°
2026-05-04 19:22 38.35925 114.81016 2732 ft 212 kts 324°
2026-05-04 19:22 38.37156 114.80019 2747 ft 212 kts 324°
2026-05-04 19:22 38.38422 114.78988 2703 ft 213 kts 324°
2026-05-04 19:23 38.39664 114.77977 2691 ft 210 kts 324°
2026-05-04 19:23 38.40902 114.76968 2741 ft 211 kts 324°
2026-05-04 19:23 38.42133 114.75963 2819 ft 212 kts 324°
2026-05-04 19:23 38.43382 114.74944 2897 ft 213 kts 324°
2026-05-04 19:24 38.44643 114.73915 2987 ft 214 kts 324°
2026-05-04 19:24 38.45893 114.72894 3003 ft 215 kts 323°
2026-05-04 19:24 38.47162 114.71855 2950 ft 213 kts 324°
2026-05-04 19:24 38.48398 114.70801 2906 ft 211 kts 319°
2026-05-04 19:25 38.49341 114.69413 2845 ft 210 kts 291°
2026-05-04 19:25 38.49555 114.67609 2811 ft 205 kts 262°
2026-05-04 19:25 38.49174 114.65839 2886 ft 206 kts 249°
2026-05-04 19:25 38.48611 114.64226 2932 ft 207 kts 246°
2026-05-04 19:26 38.47996 114.62558 2888 ft 208 kts 246°
2026-05-04 19:26 38.47394 114.60886 2887 ft 205 kts 247°
2026-05-04 19:26 38.46806 114.59225 2942 ft 207 kts 247°
2026-05-04 19:26 38.46294 114.57503 2943 ft 208 kts 259°
2026-05-04 19:27 38.46342 114.55673 2849 ft 209 kts 291°
2026-05-04 19:27 38.47160 114.54167 2875 ft 210 kts 316°
2026-05-04 19:27 38.48329 114.53040 2948 ft 212 kts 323°
2026-05-04 19:27 38.49571 114.52004 3001 ft 214 kts 324°
2026-05-04 19:28 38.50831 114.50962 3044 ft 213 kts 326°
2026-05-04 19:28 38.52194 114.50200 2982 ft 219 kts 348°
2026-05-04 19:28 38.53714 114.50430 2891 ft 224 kts 25°
2026-05-04 19:28 38.54895 114.51691 2931 ft 228 kts 52°
2026-05-04 19:29 38.55615 114.53513 2959 ft 235 kts 77°
2026-05-04 19:29 38.55539 114.55573 2854 ft 232 kts 115°
2026-05-04 19:29 38.54587 114.57146 2850 ft 224 kts 147°
2026-05-04 19:29 38.53198 114.58061 2927 ft 222 kts 168°
2026-05-04 19:30 38.51693 114.58122 2868 ft 216 kts 201°
2026-05-04 19:30 38.50424 114.57206 2858 ft 208 kts 223°
2026-05-04 19:30 38.49304 114.55981 2918 ft 211 kts 223°
2026-05-04 19:30 38.48093 114.54902 2850 ft 215 kts 205°
2026-05-04 19:31 38.46614 114.54710 2748 ft 220 kts 168°
2026-05-04 19:31 38.45273 114.55645 2781 ft 225 kts 139°
2026-05-04 19:31 38.44312 114.57263 2837 ft 230 kts 116°
2026-05-04 19:31 38.44022 114.59236 2762 ft 232 kts 80°
2026-05-04 19:32 38.44675 114.61076 2721 ft 228 kts 46°
2026-05-04 19:32 38.45911 114.62321 2798 ft 226 kts 24°
2026-05-04 19:32 38.47413 114.62794 2731 ft 221 kts 352°
2026-05-04 19:32 38.48810 114.62161 2662 ft 212 kts 323°
2026-05-04 19:33 38.50017 114.61069 2776 ft 213 kts 321°
2026-05-04 19:33 38.51236 114.59978 2730 ft 213 kts 323°
2026-05-04 19:33 38.52466 114.58926 2723 ft 211 kts 324°
2026-05-04 19:33 38.53696 114.57886 2783 ft 213 kts 323°
2026-05-04 19:34 38.54865 114.56726 2808 ft 212 kts 310°
2026-05-04 19:34 38.55541 114.55102 2694 ft 209 kts 277°
2026-05-04 19:34 38.55375 114.53289 2727 ft 209 kts 248°
2026-05-04 19:34 38.54565 114.51736 2771 ft 212 kts 227°
2026-05-04 19:35 38.53395 114.50603 2799 ft 215 kts 207°
2026-05-04 19:35 38.51899 114.50321 2695 ft 221 kts 171°
2026-05-04 19:35 38.50514 114.51139 2749 ft 222 kts 148°
2026-05-04 19:35 38.49242 114.52293 2814 ft 226 kts 148°
2026-05-04 19:36 38.47955 114.53426 2770 ft 224 kts 149°
2026-05-04 19:36 38.46656 114.54534 2763 ft 222 kts 149°
2026-05-04 19:36 38.45372 114.55646 2826 ft 224 kts 145°
2026-05-04 19:36 38.44280 114.57092 2769 ft 231 kts 119°
2026-05-04 19:37 38.43986 114.59049 2671 ft 228 kts 78°
2026-05-04 19:37 38.44646 114.60861 2726 ft 227 kts 47°
2026-05-04 19:37 38.45864 114.62150 2800 ft 226 kts 25°
2026-05-04 19:37 38.47360 114.62644 2722 ft 221 kts 351°
2026-05-04 19:38 38.48751 114.62012 2656 ft 212 kts 323°
2026-05-04 19:38 38.49957 114.60918 2775 ft 213 kts 321°
2026-05-04 19:38 38.51177 114.59820 2733 ft 213 kts 323°
2026-05-04 19:38 38.52409 114.58765 2727 ft 212 kts 323°
2026-05-04 19:39 38.53634 114.57727 2769 ft 212 kts 323°
2026-05-04 19:39 38.54793 114.56564 2803 ft 212 kts 310°
2026-05-04 19:39 38.55460 114.54929 2708 ft 208 kts 276°
2026-05-04 19:39 38.55265 114.53121 2719 ft 208 kts 246°
2026-05-04 19:40 38.54421 114.51623 2777 ft 211 kts 224°
2026-05-04 19:40 38.53191 114.50578 2819 ft 216 kts 204°
2026-05-04 19:40 38.51690 114.50372 2729 ft 222 kts 169°
2026-05-04 19:40 38.50309 114.51237 2758 ft 222 kts 147°
2026-05-04 19:41 38.49040 114.52424 2839 ft 227 kts 146°
2026-05-04 19:41 38.47754 114.53587 2809 ft 224 kts 148°
2026-05-04 19:41 38.46461 114.54700 2788 ft 224 kts 149°
2026-05-04 19:41 38.45171 114.55846 2779 ft 225 kts 143°
2026-05-04 19:42 38.44168 114.57396 2688 ft 231 kts 112°
2026-05-04 19:42 38.44051 114.59386 2627 ft 228 kts 73°
2026-05-04 19:42 38.44822 114.61102 2674 ft 228 kts 43°
2026-05-04 19:42 38.46107 114.62305 2721 ft 226 kts 21°
2026-05-04 19:43 38.47614 114.62598 2625 ft 219 kts 345°
2026-05-04 19:43 38.48963 114.61803 2654 ft 211 kts 322°
2026-05-04 19:43 38.50157 114.60712 2762 ft 214 kts 321°
2026-05-04 19:43 38.51383 114.59630 2717 ft 213 kts 323°
2026-05-04 19:44 38.52609 114.58587 2686 ft 212 kts 323°
2026-05-04 19:44 38.53857 114.57524 2664 ft 213 kts 322°
2026-05-04 19:44 38.54954 114.56305 2622 ft 211 kts 304°
2026-05-04 19:44 38.55446 114.54581 2538 ft 208 kts 269°
2026-05-04 19:45 38.55098 114.52810 2590 ft 209 kts 242°
2026-05-04 19:45 38.54147 114.51359 2668 ft 212 kts 222°
2026-05-04 19:45 38.52868 114.50421 2651 ft 218 kts 197°
2026-05-04 19:45 38.51350 114.50507 2577 ft 221 kts 159°
2026-05-04 19:46 38.50038 114.51517 2716 ft 222 kts 146°
2026-05-04 19:46 38.48764 114.52698 2751 ft 226 kts 147°
2026-05-04 19:46 38.47475 114.53834 2707 ft 224 kts 148°
2026-05-04 19:46 38.46185 114.54932 2739 ft 222 kts 149°
2026-05-04 19:47 38.44920 114.56115 2805 ft 226 kts 140°
2026-05-04 19:47 38.44044 114.57784 2694 ft 232 kts 104°
2026-05-04 19:47 38.44128 114.59795 2678 ft 227 kts 66°
2026-05-04 19:47 38.45038 114.61420 2746 ft 228 kts 39°
2026-05-04 19:48 38.46364 114.62474 2771 ft 225 kts 15°
2026-05-04 19:48 38.47877 114.62566 2675 ft 216 kts 339°
2026-05-04 19:48 38.49173 114.61665 2777 ft 210 kts 322°
2026-05-04 19:48 38.50379 114.60564 2853 ft 214 kts 322°
2026-05-04 19:49 38.51608 114.59495 2814 ft 212 kts 323°
2026-05-04 19:49 38.52844 114.58446 2774 ft 213 kts 323°
2026-05-04 19:49 38.54073 114.57391 2739 ft 214 kts 321°
2026-05-04 19:49 38.55133 114.56064 2667 ft 211 kts 298°
2026-05-04 19:50 38.55462 114.54291 2601 ft 207 kts 264°
2026-05-04 19:50 38.54987 114.52557 2671 ft 209 kts 238°
2026-05-04 19:50 38.54004 114.51185 2761 ft 212 kts 220°
2026-05-04 19:50 38.52672 114.50339 2749 ft 219 kts 191°
2026-05-04 19:51 38.51158 114.50603 2660 ft 223 kts 155°
2026-05-04 19:51 38.49853 114.51679 2781 ft 224 kts 146°
2026-05-04 19:51 38.48587 114.52852 2792 ft 226 kts 147°
2026-05-04 19:51 38.47292 114.53989 2763 ft 224 kts 149°
2026-05-04 19:52 38.45981 114.55105 2711 ft 224 kts 149°
2026-05-04 19:52 38.44758 114.56318 2650 ft 225 kts 135°
2026-05-04 19:52 38.44021 114.58082 2548 ft 228 kts 97°
2026-05-04 19:52 38.44272 114.60049 2530 ft 225 kts 60°
2026-05-04 19:53 38.45259 114.61570 2610 ft 225 kts 37°
2026-05-04 19:53 38.46620 114.62508 2604 ft 223 kts
2026-05-04 19:53 38.48124 114.62361 2494 ft 215 kts 333°
2026-05-04 19:53 38.49376 114.61368 2584 ft 210 kts 321°
2026-05-04 19:54 38.50587 114.60262 2616 ft 214 kts 323°
2026-05-04 19:54 38.51805 114.59206 2600 ft 212 kts 324°
2026-05-04 19:54 38.53043 114.58157 2605 ft 212 kts 324°
2026-05-04 19:54 38.54256 114.57083 2664 ft 211 kts 319°
2026-05-04 19:55 38.55194 114.55680 2647 ft 210 kts 292°
2026-05-04 19:55 38.55368 114.53858 2565 ft 208 kts 258°
2026-05-04 19:55 38.54760 114.52183 2628 ft 210 kts 232°
2026-05-04 19:55 38.53644 114.50952 2720 ft 213 kts 214°
2026-05-04 19:56 38.52249 114.50317 2670 ft 220 kts 184°
2026-05-04 19:56 38.50773 114.50811 2603 ft 222 kts 151°
2026-05-04 19:56 38.49509 114.51961 2735 ft 225 kts 145°
2026-05-04 19:56 38.48238 114.53159 2722 ft 224 kts 148°
2026-05-04 19:57 38.46959 114.54281 2677 ft 222 kts 148°
2026-05-04 19:57 38.45667 114.55383 2689 ft 222 kts 147°
2026-05-04 19:57 38.44501 114.56686 2717 ft 228 kts 128°
2026-05-04 19:57 38.43968 114.58575 2594 ft 229 kts 88°
2026-05-04 19:58 38.44443 114.60452 2620 ft 224 kts 52°
2026-05-04 19:58 38.45591 114.61816 2710 ft 225 kts 29°
2026-05-04 19:58 38.47031 114.62504 2716 ft 222 kts
2026-05-04 19:58 38.48492 114.62091 2644 ft 213 kts 327°
2026-05-04 19:59 38.49706 114.61020 2798 ft 211 kts 320°
2026-05-04 19:59 38.50907 114.59907 2777 ft 213 kts 322°
2026-05-04 19:59 38.52125 114.58849 2730 ft 213 kts 324°
2026-05-04 19:59 38.53366 114.57797 2763 ft 212 kts 324°
2026-05-04 20:00 38.54541 114.56686 2855 ft 212 kts 314°
2026-05-04 20:00 38.55329 114.55124 2787 ft 210 kts 282°
2026-05-04 20:00 38.55250 114.53292 2788 ft 208 kts 250°
2026-05-04 20:00 38.54451 114.51739 2869 ft 212 kts 225°
2026-05-04 20:01 38.53237 114.50662 2939 ft 214 kts 206°
2026-05-04 20:01 38.51755 114.50363 2866 ft 222 kts 172°
2026-05-04 20:01 38.50364 114.51162 2900 ft 223 kts 148°
2026-05-04 20:01 38.49089 114.52363 3022 ft 228 kts 146°
2026-05-04 20:02 38.47792 114.53552 2990 ft 227 kts 148°
2026-05-04 20:02 38.46494 114.54675 2963 ft 224 kts 149°
2026-05-04 20:02 38.45203 114.55816 2998 ft 225 kts 144°
2026-05-04 20:02 38.44182 114.57324 2973 ft 233 kts 115°
2026-05-04 20:03 38.44000 114.59331 2899 ft 230 kts 75°
2026-05-04 20:03 38.44768 114.61109 2957 ft 229 kts 43°
2026-05-04 20:03 38.46036 114.62281 3041 ft 227 kts 21°
2026-05-04 20:03 38.47557 114.62663 2966 ft 221 kts 348°
2026-05-04 20:04 38.48927 114.61931 3003 ft 211 kts 322°
2026-05-04 20:04 38.50134 114.60818 3171 ft 215 kts 321°
2026-05-04 20:04 38.51363 114.59716 3129 ft 213 kts 322°
2026-05-04 20:04 38.52593 114.58663 3125 ft 212 kts 323°
2026-05-04 20:05 38.53818 114.57624 3179 ft 212 kts 323°
2026-05-04 20:05 38.54964 114.56419 3213 ft 211 kts 308°
2026-05-04 20:05 38.55556 114.54753 3112 ft 209 kts 274°
2026-05-04 20:05 38.55306 114.52953 3121 ft 208 kts 245°
2026-05-04 20:06 38.54408 114.51473 3213 ft 212 kts 223°
2026-05-04 20:06 38.53138 114.50499 3287 ft 215 kts 201°
2026-05-04 20:06 38.51623 114.50378 3215 ft 225 kts 167°
2026-05-04 20:06 38.50228 114.51291 3245 ft 225 kts 147°
2026-05-04 20:07 38.48953 114.52490 3340 ft 229 kts 147°
2026-05-04 20:07 38.47656 114.53668 3338 ft 228 kts 149°
2026-05-04 20:07 38.46347 114.54799 3299 ft 226 kts 150°
2026-05-04 20:07 38.45057 114.55968 3307 ft 226 kts 143°
2026-05-04 20:08 38.44089 114.57552 3251 ft 235 kts 111°
2026-05-04 20:08 38.44007 114.59619 3176 ft 234 kts 72°
2026-05-04 20:08 38.44823 114.61356 3219 ft 230 kts 41°
2026-05-04 20:08 38.46119 114.62540 3297 ft 228 kts 21°
2026-05-04 20:09 38.47641 114.62874 3206 ft 220 kts 346°
2026-05-04 20:09 38.49011 114.62101 3249 ft 211 kts 322°
2026-05-04 20:09 38.50210 114.61004 3394 ft 215 kts 321°
2026-05-04 20:09 38.51443 114.59917 3372 ft 214 kts 323°
2026-05-04 20:10 38.52677 114.58869 3383 ft 214 kts 323°
2026-05-04 20:10 38.53923 114.57812 3443 ft 214 kts 322°
2026-05-04 20:10 38.55074 114.56611 3490 ft 213 kts 308°
2026-05-04 20:10 38.55687 114.54931 3411 ft 209 kts 274°
2026-05-04 20:11 38.55460 114.53127 3458 ft 208 kts 246°
2026-05-04 20:11 38.54622 114.51583 3557 ft 211 kts 227°
2026-05-04 20:11 38.53433 114.50495 3611 ft 216 kts 204°
2026-05-04 20:11 38.51926 114.50314 3528 ft 224 kts 169°
2026-05-04 20:12 38.50503 114.51171 3597 ft 226 kts 149°
2026-05-04 20:12 38.49196 114.52325 3670 ft 230 kts 148°
2026-05-04 20:12 38.47878 114.53481 3642 ft 227 kts 149°
2026-05-04 20:12 38.46568 114.54603 3612 ft 226 kts 149°
2026-05-04 20:13 38.45270 114.55744 3574 ft 227 kts 145°
2026-05-04 20:13 38.44202 114.57253 3490 ft 233 kts 117°
2026-05-04 20:13 38.43960 114.59264 3434 ft 234 kts 78°
2026-05-04 20:13 38.44645 114.61121 3491 ft 233 kts 47°
2026-05-04 20:14 38.45874 114.62468 3581 ft 230 kts 25°
2026-05-04 20:14 38.47403 114.62961 3499 ft 223 kts 350°
2026-05-04 20:14 38.48799 114.62320 3498 ft 213 kts 323°
2026-05-04 20:14 38.50032 114.61216 3644 ft 216 kts 322°
2026-05-04 20:15 38.51268 114.60139 3623 ft 216 kts 323°
2026-05-04 20:15 38.52535 114.59071 3598 ft 215 kts 323°
2026-05-04 20:15 38.53786 114.58012 3540 ft 215 kts 323°
2026-05-04 20:15 38.54966 114.56856 3497 ft 212 kts 311°
2026-05-04 20:16 38.55671 114.55253 3415 ft 209 kts 279°
2026-05-04 20:16 38.55561 114.53416 3428 ft 208 kts 251°
2026-05-04 20:16 38.54830 114.51823 3530 ft 211 kts 231°
2026-05-04 20:16 38.53693 114.50605 3574 ft 215 kts 208°
2026-05-04 20:17 38.52215 114.50286 3504 ft 222 kts 174°
2026-05-04 20:17 38.50764 114.50989 3578 ft 227 kts 152°
2026-05-04 20:17 38.49447 114.52106 3693 ft 228 kts 148°
2026-05-04 20:17 38.48122 114.53269 3824 ft 228 kts 149°
2026-05-04 20:18 38.46806 114.54401 3892 ft 229 kts 150°
2026-05-04 20:18 38.45483 114.55541 3864 ft 229 kts 147°
2026-05-04 20:18 38.44334 114.56948 3794 ft 233 kts 124°
2026-05-04 20:18 38.43900 114.58924 3732 ft 236 kts 85°
2026-05-04 20:19 38.44421 114.60880 3789 ft 235 kts 53°
2026-05-04 20:19 38.45538 114.62371 3890 ft 233 kts 32°
2026-05-04 20:19 38.47016 114.63134 3830 ft 227 kts 359°
2026-05-04 20:19 38.48517 114.62734 3779 ft 216 kts 327°
2026-05-04 20:20 38.49764 114.61673 3910 ft 216 kts 321°
2026-05-04 20:20 38.51011 114.60584 3906 ft 218 kts 323°
2026-05-04 20:20 38.52284 114.59515 3891 ft 216 kts 323°
2026-05-04 20:20 38.53547 114.58452 3890 ft 216 kts 323°
2026-05-04 20:21 38.54772 114.57349 3939 ft 216 kts 316°
2026-05-04 20:21 38.55688 114.55867 3913 ft 213 kts 288°
2026-05-04 20:21 38.55232 114.52306 4004 ft 212 kts 236°
2026-05-04 20:22 38.54229 114.50935 4106 ft 214 kts 218°
2026-05-04 20:22 38.52842 114.50234 4053 ft 221 kts 186°
2026-05-04 20:22 38.51333 114.50603 4082 ft 226 kts 158°
2026-05-04 20:22 38.49958 114.51658 4201 ft 229 kts 149°
2026-05-04 20:23 38.48651 114.52805 4280 ft 230 kts 149°
2026-05-04 20:23 38.47312 114.53966 4280 ft 230 kts 149°
2026-05-04 20:23 38.45985 114.55100 4262 ft 228 kts 150°
2026-05-04 20:23 38.44729 114.56338 4213 ft 231 kts 137°
2026-05-04 20:24 38.43935 114.58131 4140 ft 238 kts 101°
2026-05-04 20:24 38.44096 114.60189 4150 ft 237 kts 65°
2026-05-04 20:24 38.45033 114.61906 4242 ft 235 kts 41°
2026-05-04 20:24 38.46389 114.63047 4252 ft 233 kts 14°
2026-05-04 20:25 38.47965 114.63120 4163 ft 223 kts 339°
2026-05-04 20:25 38.49306 114.62213 4243 ft 216 kts 321°
2026-05-04 20:25 38.50544 114.61111 4333 ft 219 kts 323°
2026-05-04 20:25 38.51820 114.60028 4326 ft 220 kts 323°
2026-05-04 20:26 38.53105 114.58948 4288 ft 219 kts 323°
2026-05-04 20:26 38.54361 114.57875 4312 ft 217 kts 321°
2026-05-04 20:26 38.55465 114.56571 4396 ft 215 kts 301°
2026-05-04 20:26 38.55946 114.54771 4328 ft 210 kts 269°
2026-05-04 20:27 38.55614 114.52994 4227 ft 203 kts 242°
2026-05-04 20:27 38.54950 114.51888 4161 ft 201 kts 224°
2026-05-04 20:27 38.53863 114.50987 4165 ft 203 kts 205°
2026-05-04 20:27 38.52507 114.50410 4181 ft 204 kts 203°
2026-05-04 20:28 38.51242 114.49835 4185 ft 206 kts 200°
2026-05-04 20:28 38.49918 114.49628 4058 ft 213 kts 175°
2026-05-04 20:28 38.48548 114.50384 3900 ft 219 kts 140°
2026-05-04 20:28 38.47668 114.51997 3843 ft 222 kts 116°
2026-05-04 20:29 38.47090 114.53709 3866 ft 224 kts 120°
2026-05-04 20:29 38.46152 114.55250 3676 ft 219 kts 147°
2026-05-04 20:29 38.44841 114.56182 3644 ft 212 kts 160°
2026-05-04 20:29 38.43509 114.57063 3587 ft 217 kts 150°
2026-05-04 20:30 38.42262 114.58187 3289 ft 222 kts 148°
2026-05-04 20:30 38.40991 114.59289 2979 ft 223 kts 150°
2026-05-04 20:30 38.39657 114.60349 2670 ft 225 kts 151°
2026-05-04 20:30 38.38318 114.61417 2355 ft 226 kts 150°
2026-05-04 20:31 38.36999 114.62488 2042 ft 228 kts 149°
2026-05-04 20:31 38.35654 114.63598 1756 ft 226 kts 149°
2026-05-04 20:31 38.34331 114.64663 1430 ft 225 kts 149°
2026-05-04 20:31 38.33006 114.65732 1125 ft 223 kts 148°
2026-05-04 20:32 38.31708 114.66789 823 ft 215 kts 148°
2026-05-04 20:32 38.30551 114.67722 740 ft 177 kts 148°
2026-05-04 20:32 38.29511 114.68570 254 ft 206 kts 148°
2026-05-04 20:32 38.29499 114.68579 244 ft 0 kts 148°